This is the latest recevied weather packets stored in our database for station/object EA1FWM-12. If no packets are shown the sender has not sent any weather packets the latest 10 day(s).
| Time | Temp. | Humidity | Pressure | Rain* | Wind** | Luminosity | Snow |
|---|---|---|---|---|---|---|---|
| 1777849339 | 8.33° C | 87% | 1018.3 hPa | - | - | - | - |
| 1777848438 | 8.33° C | 87% | 1018.4 hPa | - | - | - | - |
| 1777847539 | 8.33° C | 87% | 1018.3 hPa | - | - | - | - |
| 1777846639 | 8.33° C | 87% | 1018.3 hPa | - | - | - | - |
| 1777845739 | 8.89° C | 87% | 1018.1 hPa | - | - | - | - |
| 1777844841 | 8.89° C | 87% | 1018.1 hPa | - | - | - | - |
| 1777843940 | 8.89° C | 86% | 1017.9 hPa | - | - | - | - |
| 1777843040 | 8.89° C | 86% | 1017.9 hPa | - | - | - | - |
| 1777842140 | 8.89° C | 86% | 1017.8 hPa | - | - | - | - |
| 1777841241 | 8.89° C | 86% | 1017.7 hPa | - | - | - | - |
| 1777840341 | 8.89° C | 85% | 1017.6 hPa | - | - | - | - |
| 1777839441 | 8.89° C | 85% | 1017.3 hPa | - | - | - | - |
| 1777838542 | 8.89° C | 85% | 1017.2 hPa | - | - | - | - |
| 1777837642 | 9.44° C | 84% | 1017 hPa | - | - | - | - |
| 1777836742 | 9.44° C | 83% | 1016.9 hPa | - | - | - | - |
| 1777835842 | 10° C | 83% | 1016.7 hPa | - | - | - | - |
| 1777834943 | 10° C | 83% | 1016.6 hPa | - | - | - | - |
| 1777834043 | 12.78° C | 82% | 1016.5 hPa | - | - | - | - |
| 1777832512 | 11.11° C | 80% | 1016.6 hPa | - | - | - | - |
| 1777831612 | 11.67° C | 80% | 1016.6 hPa | - | - | - | - |
| 1777830712 | 11.67° C | 81% | 1016.7 hPa | - | - | - | - |
| 1777829812 | 12.22° C | 78% | 1016.7 hPa | - | - | - | - |
| 1777828013 | 15.56° C | 76% | 1016.4 hPa | - | - | - | - |
| 1777827113 | 16.11° C | 78% | 1016.2 hPa | - | - | - | - |
| 1777825365 | 14.44° C | 76% | 1016.2 hPa | - | - | - | - |
* Rain since midnight (hover to see other rain measurements)
** Current wind speed in m/s (hover to see current wind gust speed)